Buena Vista, CO

6:16 AM MDT on May 26, 2018 (GMT -0600)
Buena Vista

Weather History for KAEJ - June, 2014

Change the Weather History Date:

Saturday, June 21, 2014

  Actual Average (WUND) Record (WUND)
Temperature  
Mean Temperature 62 °F -  
Max Temperature 77 °F - - (-1)
Min Temperature 48 °F - - (-1)
Degree Days  
Heating Degree Days 2    
Growing Degree Days 12 (Base 50)    
Moisture  
Dew Point 24 °F    
Average Humidity 25    
Maximum Humidity 42    
Minimum Humidity 9    
Precipitation  
Precipitation 0.00 in - - ()
Sea Level Pressure  
Sea Level Pressure 30.21 in    
Wind  
Wind Speed 6 mph (West)    
Max Wind Speed 32 mph    
Max Gust Speed 39 mph    
Visibility 10 miles    
Events      
Averages and records for this station are not official NWS values.
T = Trace of Precipitation, MM = Missing Value Source: NWS Daily Summary

Daily Weather History Graph

Daily Weather History Graph

Search for Another Location

Airport or City:

Astronomy

Jun. 21, 2014 Rise Set
Actual Time 5:39 AM MDT 8:32 PM MDT
Civil Twilight 5:07 AM MDT 9:05 PM MDT
Nautical Twilight 4:27 AM MDT 9:45 PM MDT
Astronomical Twilight 3:40 AM MDT 10:31 PM MDT
Moon 1:51 AM MDT (6/21) 3:16 PM MDT (6/21)
Length of Visible Light 15h 57m
Length of Day
14h 53m
Waning Crescent, 29% of the Moon is Illuminated
Jun 21
Waning Crescent
Jun 27
New
Jul 5
First Quarter
Jul 12
Full
Jul 18
Last Quarter

Hourly Weather History & Observations

Time (MDT) Temp. Dew Point Humidity Pressure Visibility Wind Dir Wind Speed Gust Speed Precip Events Conditions
12:15 AM 56.8 °F 16.0 °F 20% 30.24 in 10.0 mi WNW 9.2 mph - N/A   Clear
12:35 AM 58.1 °F 20.7 °F 23% 30.23 in 10.0 mi WNW 10.4 mph - N/A   Clear
12:55 AM 55.9 °F 21.2 °F 26% 30.23 in 10.0 mi WNW 10.4 mph - N/A   Clear
1:15 AM 57.2 °F 21.0 °F 25% 30.23 in 10.0 mi NW 9.2 mph - N/A   Clear
1:35 AM 55.4 °F 21.0 °F 26% 30.22 in 10.0 mi WNW 6.9 mph - N/A   Clear
1:55 AM 54.0 °F 21.6 °F 28% 30.23 in 10.0 mi Calm Calm - N/A   Clear
2:15 AM 52.5 °F 22.1 °F 31% 30.23 in 10.0 mi WNW 5.8 mph - N/A   Clear
2:55 AM 51.6 °F 21.7 °F 31% 30.23 in 10.0 mi West 6.9 mph - N/A   Clear
3:15 AM 50.7 °F 23.2 °F 34% 30.23 in 10.0 mi NW 5.8 mph - N/A   Clear
3:35 AM 51.6 °F 24.4 °F 35% 30.23 in 10.0 mi ESE 3.5 mph - N/A   Clear
3:55 AM 50.9 °F 25.2 °F 37% 30.23 in 10.0 mi Calm Calm - N/A   Clear
4:15 AM 51.1 °F 25.5 °F 37% 30.24 in 10.0 mi Calm Calm - N/A   Clear
4:35 AM 48.9 °F 26.1 °F 41% 30.24 in 10.0 mi Calm Calm - N/A   Clear
4:55 AM 48.4 °F 25.3 °F 41% 30.25 in 10.0 mi West 5.8 mph - N/A   Clear
5:15 AM 48.4 °F 26.2 °F 42% 30.26 in 10.0 mi NW 3.5 mph - N/A   Clear
5:35 AM 48.7 °F 26.2 °F 42% 30.26 in 10.0 mi Calm Calm - N/A   Clear
5:55 AM 49.6 °F 25.9 °F 40% 30.27 in 10.0 mi Calm Calm - N/A   Clear
6:15 AM 50.4 °F 26.2 °F 39% 30.27 in 10.0 mi WNW 3.5 mph - N/A   Clear
6:35 AM 50.0 °F 26.1 °F 39% 30.27 in 10.0 mi NNW 5.8 mph - N/A   Clear
6:55 AM 52.2 °F 26.8 °F 37% 30.28 in 10.0 mi Calm Calm - N/A   Clear
7:15 AM 51.6 °F 26.8 °F 38% 30.28 in 10.0 mi Calm Calm - N/A   Clear
7:35 AM 52.9 °F 26.6 °F 36% 30.28 in 10.0 mi NW 3.5 mph - N/A   Clear
7:55 AM 53.8 °F 27.7 °F 37% 30.28 in 10.0 mi NNW 4.6 mph - N/A   Clear
8:15 AM 54.0 °F 25.7 °F 34% 30.28 in 10.0 mi Calm Calm - N/A   Clear
8:35 AM 55.8 °F 27.1 °F 33% 30.28 in 10.0 mi WNW 5.8 mph - N/A   Clear
8:55 AM 58.3 °F 27.5 °F 31% 30.28 in 10.0 mi NW 3.5 mph - N/A   Clear
9:15 AM 60.8 °F 27.3 °F 28% 30.28 in 10.0 mi Calm Calm - N/A   Clear
9:35 AM 62.4 °F 26.1 °F 25% 30.28 in 10.0 mi ESE 3.5 mph - N/A   Clear
9:55 AM 64.2 °F 25.0 °F 23% 30.27 in 10.0 mi ESE 4.6 mph - N/A   Clear
10:15 AM 64.4 °F 25.3 °F 23% 30.26 in 10.0 mi SE 3.5 mph - N/A   Clear
10:35 AM 65.3 °F 26.6 °F 23% 30.26 in 10.0 mi East 3.5 mph - N/A   Clear
10:55 AM 66.7 °F 26.4 °F 22% 30.25 in 10.0 mi ENE 3.5 mph - N/A   Clear
11:15 AM 68.2 °F 25.3 °F 20% 30.25 in 10.0 mi Calm Calm - N/A   Clear
11:35 AM 68.2 °F 25.0 °F 20% 30.24 in 10.0 mi Calm Calm - N/A   Clear
11:55 AM 70.5 °F 25.0 °F 18% 30.23 in 10.0 mi ESE 3.5 mph - N/A   Clear
12:15 PM 72.1 °F 24.6 °F 17% 30.21 in 10.0 mi Calm Calm - N/A   Clear
12:35 PM 72.9 °F 24.3 °F 16% 30.21 in 10.0 mi ESE 4.6 mph - N/A   Scattered Clouds
12:55 PM 73.8 °F 19.8 °F 13% 30.19 in 10.0 mi East 3.5 mph - N/A   Mostly Cloudy
1:15 PM 75.0 °F 20.3 °F 13% 30.19 in 10.0 mi East 4.6 mph - N/A   Scattered Clouds
1:35 PM 74.8 °F 19.8 °F 13% 30.18 in 10.0 mi Calm Calm - N/A   Scattered Clouds
1:55 PM 74.7 °F 18.5 °F 12% 30.16 in 10.0 mi West 3.5 mph - N/A   Scattered Clouds
2:15 PM 77.0 °F 18.0 °F 11% 30.15 in 10.0 mi Calm Calm - N/A   Scattered Clouds
2:35 PM 76.6 °F 17.6 °F 11% 30.14 in 10.0 mi South 10.4 mph - N/A   Clear
2:55 PM 77.0 °F 14.5 °F 9% 30.14 in 10.0 mi SW 9.2 mph 16.1 mph N/A   Clear
3:15 PM 76.5 °F 18.3 °F 11% 30.14 in 10.0 mi WSW 18.4 mph 25.3 mph N/A   Mostly Cloudy
3:35 PM 75.6 °F 20.5 °F 13% 30.16 in 10.0 mi SW 24.2 mph - N/A   Overcast
3:55 PM 74.1 °F 22.6 °F 15% 30.16 in 10.0 mi WSW 32.2 mph 39.1 mph N/A   Mostly Cloudy
4:15 PM 72.5 °F 24.4 °F 17% 30.16 in 10.0 mi SSW 16.1 mph - N/A   Scattered Clouds
4:35 PM 72.0 °F 23.4 °F 16% 30.16 in 10.0 mi South 9.2 mph 12.7 mph N/A   Scattered Clouds
4:55 PM 72.5 °F 22.5 °F 15% 30.16 in 10.0 mi South 12.7 mph 16.1 mph N/A   Clear
5:15 PM 72.1 °F 20.8 °F 14% 30.16 in 10.0 mi South 6.9 mph 16.1 mph N/A   Clear
5:35 PM 72.1 °F 20.8 °F 14% 30.15 in 10.0 mi South 4.6 mph 9.2 mph N/A   Clear
5:55 PM 70.3 °F 27.3 °F 20% 30.15 in 10.0 mi West 4.6 mph - N/A   Clear
6:15 PM 71.1 °F 26.2 °F 19% 30.14 in 10.0 mi NW 9.2 mph - N/A   Clear
6:35 PM 71.2 °F 26.6 °F 19% 30.14 in 10.0 mi NW 3.5 mph - N/A   Clear
6:55 PM 71.6 °F 25.3 °F 18% 30.14 in 10.0 mi Calm Calm - N/A   Clear
7:15 PM 71.8 °F 25.7 °F 18% 30.14 in 10.0 mi WSW 4.6 mph - N/A   Clear
7:35 PM 71.4 °F 25.7 °F 18% 30.14 in 10.0 mi Calm Calm - N/A   Clear
7:55 PM 69.8 °F 25.7 °F 19% 30.15 in 10.0 mi West 10.4 mph - N/A   Clear
8:15 PM 67.8 °F 21.9 °F 18% 30.16 in 10.0 mi WSW 6.9 mph - N/A   Clear
8:35 PM 65.5 °F 22.8 °F 20% 30.16 in 10.0 mi West 5.8 mph - N/A   Clear
8:55 PM 61.0 °F 24.6 °F 25% 30.17 in 10.0 mi WSW 6.9 mph - N/A   Clear
9:15 PM 60.3 °F 23.7 °F 25% 30.18 in 10.0 mi West 5.8 mph - N/A   Clear
9:35 PM 56.8 °F 27.3 °F 32% 30.18 in 10.0 mi WSW 8.1 mph - N/A   Clear
9:55 PM 57.2 °F 24.1 °F 28% 30.19 in 10.0 mi WSW 8.1 mph - N/A   Clear
10:15 PM 58.1 °F 23.0 °F 26% 30.19 in 10.0 mi West 4.6 mph - N/A   Clear
10:35 PM 56.5 °F 22.6 °F 27% 30.19 in 10.0 mi WNW 8.1 mph - N/A   Clear
10:55 PM 54.9 °F 23.2 °F 29% 30.19 in 10.0 mi West 8.1 mph - N/A   Clear
11:15 PM 55.9 °F 24.6 °F 30% 30.19 in 10.0 mi WNW 9.2 mph - N/A   Clear
11:35 PM 54.0 °F 26.4 °F 35% 30.19 in 10.0 mi WNW 10.4 mph - N/A   Clear
11:55 PM 53.4 °F 26.6 °F 36% 30.19 in 10.0 mi Calm Calm - N/A   Clear